Location: Luxembourg
(49.6117°N, 6.1300°E)
Time: 12:17:06
(UTC+01:00)

ISS - Visible Passes

Search period start: 24 January 2019 00:00
Search period end: 03 February 2019 00:00
Orbit: 404 x 410 km, 51.6° (Epoch: 24 January)

Date Brightness Start Highest point End Pass type
(mag) Time Alt. Az. Time Alt. Az. Time Alt. Az.
24 Jan -2.7 19:22:19 10° SW 19:24:47 35° S 19:24:47 35° S visible
25 Jan -2.4 18:31:24 10° SSW 18:34:11 26° SE 18:35:41 18° ESE visible
25 Jan -1.2 20:07:10 10° WSW 20:08:24 21° WSW 20:08:24 21° WSW visible
26 Jan -3.9 19:15:49 10° WSW 19:19:06 71° SSE 19:19:14 69° SE visible
27 Jan -3.3 18:24:34 10° SW 18:27:45 48° SSE 18:30:00 18° E visible
27 Jan -1.7 20:00:59 10° W 20:02:43 28° W 20:02:43 28° W visible
28 Jan -3.8 19:09:31 10° W 19:12:49 77° NNW 19:13:26 55° NE visible
29 Jan -3.8 18:18:06 10° WSW 18:21:23 82° SSE 18:24:07 14° ENE visible
29 Jan -2.1 19:54:47 10° W 19:56:50 33° WNW 19:56:50 33° WNW visible
30 Jan -3.6 19:03:17 10° W 19:06:34 61° N 19:07:30 40° NE visible
30 Jan -0.3 20:39:58 10° WNW 20:40:12 12° WNW 20:40:12 12° WNW visible
31 Jan -3.7 18:11:46 10° W 18:15:04 70° NNW 18:18:09 11° ENE visible
31 Jan -2.6 19:48:30 10° WNW 19:50:52 41° NW 19:50:52 41° NW visible
01 Feb -3.6 18:57:00 10° WNW 19:00:17 58° N 19:01:31 33° ENE visible
01 Feb -0.6 20:33:37 10° WNW 20:34:14 15° WNW 20:34:14 15° WNW visible
02 Feb -3.5 18:05:28 10° W 18:08:45 59° N 18:12:01 10° ENE visible
02 Feb -3.3 19:42:08 10° WNW 19:44:55 60° WNW 19:44:55 60° WNW visible
